Regional Weather Roundup
Issued by NWS

Home | Current Version | Previous Version | Graphics & Text | Print | Product List | Glossary On
Versions: 1 2 3 4 5 6 7 8 9 10 11 12 13 14 15 16 17 18 19 20 21 22 23 24 25 26 27 28 29 30 31 32 33 34 35 36 37 38 39 40 41 42 43 44 45 46 47 48 49 50
000
ASUS43 KDMX 201101
RWRIA

WEATHER ROUNDUP FOR IOWA
NATIONAL WEATHER SERVICE DES MOINES IA
500 AM CST TUE FEB 20 2018

NOTE: "FAIR" INDICATES FEW OR NO CLOUDS BELOW 12,000 FEET WITH NO
SIGNIFICANT WEATHER AND/OR OBSTRUCTIONS TO VISIBILITY.

* - THESE STATIONS ARE NOT NWS STATIONS...THUS NOT UNDER NWS
QUALITY CONTROL.  THEY ALSO DO NOT REPORT WEATHER SUCH
AS PRECIPITATION OR FOG.

IAZ001>003-012>014-020>022-031>034-043>046-201200-
   NORTHWEST IOWA

CITY           SKY/WX    TMP DP  RH WIND       PRES   REMARKS
CARROLL *      CLOUDY    23  21  93 MISG      29.85S
CHEROKEE *     CLOUDY    17  15  93 NW9       29.88R WCI   6
DENISON *      CLOUDY    19  18  93 NW9       29.90R WCI   9
LE MARS *      CLOUDY    16  12  86 MISG      29.92R
ORANGE CITY *  CLOUDY    16  12  86 NW7       29.89R WCI   6
SHELDON *      CLOUDY    12  10  92 MISG      29.88R
SIOUX CITY     CLOUDY    16  12  84 NW15      29.93R WCI   1
SPENCER        CLOUDY    16  11  80 N14       29.86S WCI   2
STORM LAKE *   CLOUDY    18  18 100 MISG      29.84S
$$

IAZ055>058-069>071-079>083-090>094-201200-
   SOUTHWEST IOWA

CITY           SKY/WX    TMP DP  RH WIND       PRES   REMARKS
ATLANTIC *     CLOUDY    23  23 100 NW12      29.87S WCI  12
AUDUBON *      CLOUDY    21  19  93 CALM      29.86S
CLARINDA *       N/A     25  25 100 NW9G17    29.91R WCI  15
COUNCIL BLFS * LGT SNOW  19  21 100 NW16      29.89R WCI   5
CRESTON *      MIX PCPN  28  27  93 NW15      29.85R WCI  17
HARLAN  *      CLOUDY    21  21 100 NW13      29.91S WCI   9
LAMONI         CLOUDY    30  27  88 NW13      29.84R WCI  20
RED OAK *      CLOUDY    23  23 100 NW10      29.90R WCI  12
SHENANDOAH *   MIX PCPN  23  23 100 VRB7G14   29.91R WCI  15
$$

IAZ047>049-059>061-072>074-084-201200-
   CENTRAL IOWA

CITY           SKY/WX    TMP DP  RH WIND       PRES   REMARKS
AMES           CLOUDY    30  27  88 NW15      29.84R WCI  19
ANKENY *       CLOUDY    30  28  93 NW10      29.84F WCI  21
BOONE *        LGT RAIN  27  27 100 MISG      29.84R
CHARITON *     LGT RAIN  30  30 100 NW12      29.84R WCI  21
DES MOINES     FRZ DRZL  30  28  92 W10       29.84R WCI  21
GRINNELL*      MIX PCPN  31  30  99 W6        29.80F WCI  25
KNOXVILLE *    LGT RAIN  30  30 100 NW10      29.82R WCI  21
MARSHALLTOWN   CLOUDY    31  30  96 W8        29.80F WCI  23
NEWTON *       CLOUDY    30  30 100 W10       29.82R FOG     WCI  21
PELLA *        CLOUDY    31  30  96 W8        29.84R FOG     WCI  23
$$

IAZ004>006-015-016-023>025-035-036-201200-
   NORTH CENTRAL IOWA

CITY           SKY/WX    TMP DP  RH WIND       PRES   REMARKS
CLARION *      CLOUDY    25  25 100 NW14      29.82F FOG     WCI  13
ESTHERVILLE    CLOUDY    15  13  91 N17       29.85R WCI  -1
FORT DODGE *   CLOUDY    22  20  92 NW6       29.84F WCI  14
MASON CITY     CLOUDY    26  24  92 NW10      29.84R WCI  16
FOREST CITY *  LGT SNOW  25  23  93 NW5       29.83S WCI  19
WEBSTER CITY * MIX PCPN  25  25 100 NW15      29.82R WCI  12
IOWA FALLS *   CLOUDY    31  30  96 W8        29.81F WCI  24
$$

IAZ007>011-017>019-026>030-037>042-050>054-066-201200-
   NORTHEAST IOWA

CITY           SKY/WX    TMP DP  RH WIND       PRES   REMARKS
CEDAR RAPIDS   LGT RAIN  33  33 100 SE3       29.77F
CHARLES CITY * LGT RAIN  32  32 100 W9        29.80R WCI  24
CLINTON *      LGT RAIN  38  38 100 MISG        N/A  VSB 3/4
DECORAH *      LGT RAIN  32  32 100 NW5       29.77R WCI  27
DUBUQUE        RAIN      33  32  96 W7        29.82R FOG     WCI  27
MONTICELLO *   LGT RAIN  34  34 100 E7        29.77F WCI  28
OELWEIN *      LGT RAIN  32  32 100 W13G18    29.81R WCI  22
WATERLOO       CLOUDY    31  31 100 W8        29.79R WCI  23
$$

IAZ064-065-067-068-078-201200-
   EAST CENTRAL IOWA

CITY           SKY/WX    TMP DP  RH WIND       PRES   REMARKS
DAVENPORT      RAIN      39  37  92 NW21      29.83R FOG     WCI  29
IOWA CITY      LGT RAIN  35  32  88 CALM      29.80F
MT. PLEASANT * LGT RAIN  34  34 100 NW8       29.82S WCI  27
MUSCATINE *    LGT RAIN  36  36 100 NW9       29.82R WCI  29
QUAD CITIES    LGT RAIN  41  39  93 CALM      29.79R FOG
$$

IAZ062-063-075>077-085>089-095>099-201200-
   SOUTHEAST IOWA

CITY           SKY/WX    TMP DP  RH WIND       PRES   REMARKS
BURLINGTON     CLOUDY    41  40  96 CALM      29.79R FOG
FAIRFIELD *    CLOUDY    32  32 100 NW6       29.81R WCI  26
FORT MADISON * CLOUDY    43  43 100 N6G12     29.81R FOG
KEOKUK *       CLOUDY    41  41 100 NW7G16    29.79R FOG
OSKALOOSA *    RAIN      31  30  98 NW5       29.81R WCI  26
OTTUMWA        FRZ RAIN  32  32 100 N3        29.79R
WASHINGTON *   LGT RAIN  34  34 100 CALM      29.81F
$$

ABBREVIATIONS USED IN REMARKS
   TC - TEMPERATURES IN CELSIUS
  WCI - WIND CHILL INDEX
   HX - HEAT INDEX
  VSB - VISIBILITY
$$




USA.gov is the U.S. government's official web portal to all federal, state and local government web resources and services.